Location: *
(33.8649°S, 62.1526°E)
Time: 08:35:35
(UTC+00:00)

Cosmos 44 Rocket - Pass Details

Date: 03 December 2021
Orbit: 648 x 741 km, 65.1° (Epoch: 23 January)

Event Time Altitude Azimuth Distance (km) Brightness Sun altitude
Exits shadow 18:39:47 34° 208° (SSW) 1,088 4.7 -32.0°
Drops below altitude 10° 18:43:13 10° 168° (SSE) 2,094 6.4 -32.2°
Sets 18:45:42 0° 159° (SSE) 3,023 7.3 -32.4°
